[[{"header":{"parameterUnit":"m.s-1","parameterCategory":1,"la1":30.2991,"la2":30.254,"lo1":-89.0895,"lo2":-89.0444,"dy":0.0017,"dx":0.0017,"nx":28,"ny":28,"refTime":"2025-08-20T09:00:00:Z","depth":0,"parameterNumber":2,"parameterNumberName":"U-component_of_WINDS"},"data":[0,0,0,0,0,0,0,0,0,0,0,0,0,0,0,0,0,0,0,0,0,0,0,0,0,0,0,0,0,0,0,0,0,0,0,0,0,0,0,0,0,0,0,0,0,0,0,0,0,0,0,0,0,0,0,0,0,0,2.0848,2.085,0,2.0956,2.0957,2.0958,2.1015,2.1015,2.1015,2.1015,2.1125,2.1128,2.1131,0,0,0,0,0,0,0,0,0,0,0,0,0,2.0692,2.0695,2.0848,2.085,2.0851,2.0956,2.0957,2.0959,2.1015,2.1015,2.1015,2.1015,2.1124,2.1128,2.1131,0,0,0,0,0,0,0,0,0,0,0,0,0,2.0776,2.0696,2.0848,2.0892,2.0897,2.0955,2.0957,2.0959,2.1015,2.1015,2.1015,2.1015,2.1123,2.1127,2.1132,2.1155,0,0,2.1145,2.1146,0,0,0,0,0,0,0,0,2.0771,2.0782,2.0884,2.0889,2.0894,2.0972,2.0943,2.1025,2.1015,2.097,2.1015,2.1015,2.1074,2.1082,2.1102,2.116,2.1165,2.1145,2.1148,2.1149,2.1151,0,0,0,0,0,0,0,2.0765,2.0777,2.0891,2.0885,2.0892,2.0906,2.0918,2.0959,2.102,2.0974,2.0978,2.099,2.1077,2.1098,2.1105,2.1167,2.1145,2.1149,2.1151,2.1153,2.1252,2.1252,0,0,0,0,0,0,2.0752,2.0772,2.0888,2.0894,2.0832,2.0909,2.0922,2.0947,2.102,2.1031,2.099,2.0992,2.1091,2.11,2.1109,2.1143,2.1149,2.1153,2.1156,2.1251,2.1252,2.1252,0,0,0,0,0,0,2.0749,2.0762,2.0883,2.0834,2.0851,2.0911,2.0939,2.0949,2.097,2.1032,2.1043,2.1,2.1091,2.1103,2.1144,2.1147,2.1155,2.1159,2.1251,2.1252,2.1252,2.1209,0,0,0,0,0,0,2.0744,2.0761,2.077,2.0834,2.0853,2.0915,2.0939,2.0951,2.0977,2.0982,2.1044,2.1055,2.1092,2.1137,2.1148,2.1154,2.1163,2.1251,2.1251,2.1252,2.1211,2.1208,2.1206,0,0,0,0,0,2.0738,2.0753,2.077,2.0784,2.0866,2.0915,2.0926,2.0969,2.0977,2.0988,2.1027,2.1053,2.1145,2.1141,2.1154,2.116,2.1251,2.1251,2.1252,2.1212,2.1208,2.1206,0,0,0,0,0,0,2.0687,2.0762,2.0782,2.0818,2.086,2.0925,2.0938,2.0964,2.1004,2.1006,2.1058,2.1071,2.1107,2.1138,2.1132,2.1188,2.1201,2.1204,2.1166,2.1164,2.1161,2.1153,2.1166,0,0,0,0,0,2.068,2.0714,2.0778,2.0803,2.0823,2.0877,2.09,2.093,2.0975,2.0993,2.1036,2.1079,2.1118,2.1143,2.1182,2.1216,2.1231,2.1227,2.1224,2.1222,2.1223,2.1245,2.1244,2.1252,2.1252,2.1252,0,0,2.0665,2.0711,2.0729,2.0794,2.083,2.0864,2.0892,2.0926,2.0952,2.0998,2.1039,2.1072,2.1124,2.1161,2.118,2.1188,2.1225,2.1222,2.122,2.1223,2.1245,2.1244,2.1243,2.1252,2.1252,2.1252,0,0,2.0657,2.0694,2.072,2.0756,2.081,2.0847,2.0853,2.0914,2.0938,2.098,2.1016,2.1048,2.1114,2.115,2.1176,2.1183,2.1208,2.1194,2.1181,2.1201,2.12,2.12,2.1203,2.1203,2.1196,2.1196,2.1196,0,2.0631,2.0684,2.073,2.0763,2.0791,2.0836,2.0863,2.0895,2.0959,2.0978,2.0986,2.1071,2.1109,2.1156,2.1158,2.1178,2.1187,2.1187,2.1197,2.1197,2.1197,2.1201,2.1202,2.1194,2.1194,2.1194,2.1194,0,2.0651,2.0687,2.0702,2.0763,2.0793,2.0823,2.0874,2.0899,2.0926,2.0961,2.1004,2.1052,2.1102,2.1115,2.1142,2.1166,2.117,2.1187,2.1201,2.1194,2.1198,2.1199,2.1191,2.1192,2.1192,2.1193,0,0,2.0611,2.0699,2.0704,2.0733,2.0797,2.0826,2.0858,2.0908,2.0928,2.0972,2.1001,2.1056,2.1073,2.1103,2.1135,2.1152,2.1155,2.1167,2.1169,2.1164,2.1186,2.1173,2.1173,2.1173,2.1173,2.1174,2.1182,0,2.0611,2.0671,2.0714,2.0758,2.0792,2.0836,2.0865,2.0907,2.0942,2.0976,2.1014,2.1053,2.1072,2.1091,2.111,2.1151,2.1161,2.1151,2.12,2.1202,2.1186,2.1175,2.1161,2.1167,2.1184,2.1184,2.1184,0,2.0618,2.0661,2.0708,2.077,2.0786,2.0811,2.0861,2.0893,2.0943,2.0967,2.1002,2.1035,2.1072,2.1083,2.1135,2.1127,2.115,2.1174,2.1175,2.1181,2.1192,2.1181,2.1169,2.117,2.1187,2.1187,2.1187,0,2.0584,2.0654,2.0691,2.0715,2.0788,2.0805,2.0836,2.0887,2.0914,2.0958,2.0976,2.1023,2.1049,2.1085,2.113,2.1134,2.1178,2.1193,2.1199,2.1198,2.1206,2.1204,2.1197,2.1221,2.1221,2.1221,2.1221,0,2.0579,2.0606,2.0677,2.07,2.0732,2.0783,2.0813,2.0848,2.0893,2.0924,2.0965,2.0993,2.1051,2.1087,2.1122,2.116,2.1172,2.1192,2.1201,2.1189,2.1186,2.1204,2.1205,2.1221,2.1221,2.1221,2.1221,0,2.0546,2.0595,2.0639,2.0705,2.0723,2.0744,2.0801,2.0825,2.0863,2.0902,2.0914,2.0972,2.1017,2.1065,2.1125,2.115,2.1186,2.1199,2.1168,2.1174,2.1177,2.1176,2.1181,2.1185,2.1205,2.1205,2.1205,0,2.0539,2.0561,2.0631,2.0655,2.0686,2.0724,2.0753,2.0804,2.0832,2.0892,2.0909,2.0957,2.0997,2.1066,2.1114,2.1161,2.1175,2.1174,2.1182,2.1169,2.1176,2.1174,2.1176,2.1171,2.117,2.117,2.117,0,2.0522,2.0546,2.0586,2.0635,2.0668,2.0709,2.0751,2.0769,2.0829,2.0859,2.0905,2.0936,2.0999,2.1046,2.1099,2.1132,2.1161,2.1167,2.1171,2.1158,2.1139,2.115,2.1161,2.1166,2.1167,2.1167,2.1167,2.1167,2.0502,2.0524,2.0577,2.0621,2.0659,2.0698,2.0725,2.0766,2.0806,2.0861,2.0889,2.0935,2.0986,2.1061,2.1093,2.113,2.1139,2.1145,2.1146,2.1147,2.1144,2.1134,2.114,2.114,2.114,2.114,2.1141,0,2.0487,2.0524,2.0564,2.0623,2.0658,2.0683,2.0732,2.076,2.08,2.0845,2.0885,2.0939,2.0985,2.1038,2.1087,2.1107,2.1122,2.1118,2.1117,2.1124,2.1132,2.1124,2.1106,2.1106,2.1106,2.1106,2.1106,2.1106,2.0483,2.0523,2.0553,2.0612,2.0649,2.0695,2.0721,2.0758,2.0795,2.0853,2.0892,2.0926,2.0975,2.1029,2.1073,2.1087,2.1104,2.1096,2.1114,2.1121,2.1124,2.1126,2.1119,2.1099,2.1099,2.1104,2.1104,2.1104]},{"header":{"parameterUnit":"m.s-1","parameterCategory":1,"la1":30.2991,"la2":30.254,"lo1":-89.0895,"lo2":-89.0444,"dy":0.0017,"dx":0.0017,"nx":28,"ny":28,"refTime":"2025-08-20T09:00:00:Z","depth":0,"parameterNumber":3,"parameterNumberName":"V-component_of_WINDS"},"data":[0,0,0,0,0,0,0,0,0,0,0,0,0,0,0,0,0,0,0,0,0,0,0,0,0,0,0,0,0,0,0,0,0,0,0,0,0,0,0,0,0,0,0,0,0,0,0,0,0,0,0,0,0,0,0,0,0,0,5.3728,5.3729,0,5.3794,5.3795,5.3796,5.3763,5.3761,5.3759,5.3758,5.3816,5.3819,5.3822,0,0,0,0,0,0,0,0,0,0,0,0,0,5.3563,5.3567,5.3728,5.3729,5.373,5.3794,5.3795,5.3796,5.3763,5.3761,5.3759,5.3757,5.3815,5.3819,5.3823,0,0,0,0,0,0,0,0,0,0,0,0,0,5.3632,5.3568,5.3728,5.3721,5.3721,5.3794,5.3795,5.3796,5.3763,5.3761,5.3758,5.3756,5.3814,5.3819,5.3823,5.3904,0,0,5.3838,5.384,0,0,0,0,0,0,0,0,5.3629,5.3639,5.3721,5.3722,5.3722,5.3768,5.3759,5.3832,5.3764,5.3747,5.3757,5.3755,5.3802,5.3807,5.3825,5.3906,5.3909,5.3838,5.3841,5.3843,5.3844,0,0,0,0,0,0,0,5.3624,5.3635,5.3754,5.3722,5.3723,5.3712,5.3719,5.3772,5.3787,5.3748,5.3746,5.3755,5.3801,5.382,5.3826,5.391,5.3838,5.3842,5.3845,5.3847,5.4057,5.406,0,0,0,0,0,0,5.3621,5.3632,5.3752,5.3756,5.3668,5.3717,5.3725,5.3755,5.3787,5.3789,5.3757,5.3753,5.3814,5.3821,5.3828,5.3921,5.3843,5.3847,5.385,5.4054,5.4058,5.4061,0,0,0,0,0,0,5.3617,5.3632,5.3749,5.3693,5.3707,5.3722,5.3757,5.3758,5.3777,5.3794,5.3795,5.3774,5.3812,5.3821,5.3885,5.3923,5.385,5.3854,5.4051,5.4055,5.4059,5.411,0,0,0,0,0,0,5.3613,5.3631,5.3663,5.3694,5.3711,5.3808,5.376,5.3761,5.3787,5.3782,5.381,5.3812,5.3811,5.3878,5.389,5.3928,5.3858,5.4048,5.4053,5.4058,5.4105,5.4115,5.4124,0,0,0,0,0,5.3607,5.3674,5.3665,5.368,5.3752,5.381,5.3819,5.3818,5.379,5.3821,5.3832,5.3812,5.3918,5.3885,5.3898,5.3938,5.4045,5.4052,5.4058,5.4101,5.4113,5.4124,0,0,0,0,0,0,5.3643,5.3677,5.3669,5.3748,5.3777,5.3804,5.3844,5.3832,5.3867,5.3861,5.3856,5.3862,5.3928,5.394,5.3902,5.4016,5.3977,5.3986,5.4005,5.4017,5.4027,5.402,5.3862,0,0,0,0,0,5.3661,5.3708,5.3735,5.3802,5.3817,5.3829,5.3854,5.3851,5.3879,5.389,5.3905,5.393,5.3969,5.3995,5.4032,5.4108,5.4112,5.4142,5.4152,5.416,5.4166,5.4204,5.4217,5.4081,5.4081,5.4081,0,0,5.3697,5.3722,5.3751,5.381,5.3832,5.3877,5.3838,5.3889,5.3921,5.3896,5.3957,5.397,5.3997,5.4067,5.4099,5.4079,5.4205,5.4168,5.4174,5.4176,5.4212,5.4225,5.4236,5.4085,5.4084,5.4084,0,0,5.3785,5.3811,5.3868,5.3892,5.3927,5.3934,5.3948,5.3978,5.3986,5.4048,5.403,5.4067,5.4135,5.4155,5.4174,5.4271,5.4252,5.4283,5.4332,5.4369,5.438,5.4389,5.442,5.4432,5.4291,5.4291,5.4291,0,5.3824,5.3895,5.3898,5.395,5.3975,5.3959,5.4015,5.4036,5.408,5.4096,5.4075,5.416,5.4178,5.425,5.4274,5.4292,5.4304,5.4278,5.4379,5.4388,5.4397,5.4426,5.4438,5.4294,5.4294,5.4293,5.4293,0,5.3939,5.3989,5.403,5.4076,5.4106,5.416,5.4168,5.4198,5.4193,5.4202,5.4263,5.4285,5.4325,5.4343,5.4338,5.4414,5.4401,5.438,5.4339,5.4413,5.444,5.4452,5.4299,5.4297,5.4296,5.4296,0,0,5.4047,5.4097,5.4112,5.4131,5.417,5.4206,5.4258,5.43,5.4324,5.4355,5.4396,5.4455,5.4435,5.4457,5.4454,5.4488,5.4559,5.4462,5.4463,5.4476,5.4641,5.4653,5.4667,5.4549,5.4551,5.4553,5.4637,0,5.4135,5.4229,5.4234,5.4318,5.4361,5.4347,5.4392,5.4419,5.4429,5.4464,5.4474,5.4515,5.4488,5.4501,5.4534,5.4543,5.4591,5.4538,5.4582,5.4584,5.4572,5.4681,5.4695,5.4773,5.4648,5.465,5.4651,0,5.4248,5.4286,5.4375,5.4407,5.4425,5.4466,5.4504,5.454,5.4569,5.4573,5.4599,5.4591,5.4641,5.4603,5.4669,5.4633,5.4652,5.4659,5.4662,5.4663,5.4619,5.4681,5.4799,5.4809,5.4669,5.4667,5.4666,0,5.4313,5.4387,5.4449,5.4467,5.4506,5.4534,5.4551,5.4578,5.4603,5.4636,5.4651,5.4689,5.4708,5.4736,5.4738,5.4711,5.4804,5.4766,5.4805,5.4805,5.4822,5.482,5.494,5.4841,5.4841,5.4841,5.4841,0,5.4408,5.4461,5.4479,5.4516,5.4576,5.4581,5.4638,5.4652,5.4677,5.4714,5.4705,5.474,5.4742,5.4777,5.4779,5.4832,5.4842,5.4844,5.4843,5.4843,5.4842,5.4851,5.4845,5.4844,5.4843,5.4843,5.4842,0,5.4488,5.4503,5.4569,5.4602,5.4612,5.4653,5.468,5.4714,5.4724,5.4772,5.4783,5.4798,5.4839,5.4845,5.4892,5.4893,5.4956,5.4951,5.4946,5.4944,5.4982,5.4977,5.5109,5.5125,5.5019,5.502,5.5021,0,5.4545,5.4587,5.4625,5.4652,5.4671,5.4713,5.474,5.4746,5.4773,5.4809,5.4838,5.488,5.4912,5.4978,5.499,5.5026,5.5019,5.5063,5.5024,5.5022,5.5015,5.5011,5.5014,5.5069,5.507,5.5071,5.5072,0,5.4644,5.4649,5.4689,5.4731,5.4764,5.4796,5.4827,5.4849,5.4858,5.4889,5.4932,5.4958,5.5008,5.5047,5.5083,5.5096,5.5085,5.5085,5.5095,5.5093,5.5088,5.5088,5.4963,5.5081,5.508,5.5079,5.5079,5.5079,5.4711,5.4747,5.478,5.4824,5.4849,5.4878,5.4912,5.4928,5.4966,5.5008,5.501,5.5056,5.5083,5.513,5.5147,5.5181,5.5167,5.5182,5.5185,5.5188,5.519,5.5086,5.5188,5.5188,5.5188,5.5188,5.5187,0,5.4806,5.4827,5.4868,5.4913,5.4948,5.4939,5.4973,5.5,5.5043,5.5071,5.5104,5.5153,5.5191,5.5209,5.5246,5.527,5.5265,5.5279,5.5275,5.5278,5.5203,5.5189,5.5282,5.5282,5.5282,5.5282,5.5282,5.5282,5.4859,5.4918,5.4928,5.4998,5.5018,5.5067,5.5086,5.5112,5.5134,5.5191,5.5224,5.5236,5.5259,5.5298,5.5331,5.5335,5.5347,5.5363,5.5364,5.5293,5.5283,5.5274,5.526,5.5367,5.5367,5.5435,5.5436,5.5436]}]]